SIMSAT 1

导读

SIMSAT 1是由独联体(CIS)于2000年5月16日08:00发射的一颗卫星。作为独联体进入21世纪后早期航天活动的组成部分,该卫星承载着特定空间任务目标,是独联体在航天领域持续探索与技术应用的实践成果,推进了相关航天技术积累与空间资源利用。

Basic Information
目录编号:
26365
目录名称:
SIMSAT 1
国际标识:
2000-026A
轨道中心:
EARTH
卫星名称:
SIMSAT 1
卫星全名:
--
卫星状态:
在轨 (已飞行9528 天)
发射日期:
2000-05-16 UTC
国别 :
俄罗斯(独联体) (CIS)
星等 :
--
Orbit Information
数据来源 国际轨道数据 AOE轨道数据
星历时间 2026-06-17T11:27:57+0800
4小时前
查看轨道信息
2026-06-16T06:00:00+0800
1天前
查看轨道信息
半长轴 6859.593km 6859.603km
偏心率 0.0007743 0.0007965
轨道倾角 86.344° 86.346°
近地点辐角 1.988° 6.872°
升交点赤经 131.727° 132.329°
平近点角 358.140° 83.819°
近地点 476.144km 476.002km
远地点 486.768km 486.93km
周期 94.234分钟 94.234分钟
每日圈数 15.281124 15.281089
Detailed Information
使用方式:
暂无
2D Orbit Map
3D Orbit Map
Orbit Altitude Analysis Chart
Orbit Inclination Analysis Chart
Orbit Comprehensive Analysis Chart
View Comprehensive Chart